When you browse on this site, cookies collect data to enhance your experience and personalize the content and advertising you see.
Visit our Privacy Policy to learn more. By continuing to use the site, you agree to this use of cookies and data.
  • In Hungary
  • List of Countries
  • For 7 days
  • Water Temperature
  • Satellite Maps
  • Weather Map
  • News
  • Weather Widgets
  • user-avatar
    Login

    Hourly Weather Ciampino

    Today, 21 March, Thursday

    Time Temperature Precipitation Wind Pressure Humidity
    00:00 +10°C° 0 mm 2 mps 757 mmHg 59%
    01:00 +9°C° 0 mm 3 mps 757 mmHg 62%
    02:00 +9°C° 0 mm 3 mps 756 mmHg 60%
    03:00 +9°C° 0 mm 3 mps 756 mmHg 58%
    04:00 +8°C° 0 mm 2 mps 756 mmHg 55%
    05:00 +9°C° 0 mm 2 mps 756 mmHg 54%
    06:00 +9°C° 0 mm 2 mps 756 mmHg 52%
    07:00 +9°C° 0 mm 2 mps 756 mmHg 51%
    08:00 +12°C° 0 mm 2 mps 757 mmHg 47%
    09:00 +15°C° 0 mm 2 mps 757 mmHg 43%
    10:00 +17°C° 0 mm 2 mps 757 mmHg 39%
    11:00 +19°C° 0 mm 2 mps 757 mmHg 37%
    12:00 +20°C° 0 mm 2 mps 757 mmHg 35%
    13:00 +23°C° 0 mm 1 mps 757 mmHg 32%
    14:00 +23°C° 0 mm 1 mps 757 mmHg 33%
    15:00 +23°C° 0 mm 1 mps 756 mmHg 34%
    16:00 +23°C° 0 mm 1 mps 756 mmHg 35%
    17:00 +22°C° 0 mm 1 mps 756 mmHg 40%
    18:00 +20°C° 0 mm 1 mps 757 mmHg 46%
    19:00 +18°C° 0 mm 1 mps 757 mmHg 51%
    20:00 +16°C° 0 mm 1 mps 757 mmHg 54%
    21:00 +15°C° 0 mm 1 mps 758 mmHg 57%
    22:00 +14°C° 0 mm 1 mps 758 mmHg 60%
    23:00 +14°C° 0 mm 1 mps 758 mmHg 60%

    Tomorrow, 22 March, Friday

    Time Temperature Precipitation Wind Pressure Humidity
    00:00 +13°C° 0 mm 2 mps 758 mmHg 61%
    01:00 +13°C° 0 mm 2 mps 758 mmHg 61%
    02:00 +13°C° 0 mm 2 mps 758 mmHg 60%
    03:00 +12°C° 0 mm 2 mps 758 mmHg 59%
    04:00 +12°C° 0 mm 2 mps 757 mmHg 58%
    05:00 +12°C° 0 mm 2 mps 758 mmHg 58%
    06:00 +12°C° 0 mm 2 mps 758 mmHg 58%
    07:00 +12°C° 0 mm 2 mps 758 mmHg 58%
    08:00 +14°C° 0 mm 1 mps 758 mmHg 52%
    09:00 +18°C° 0 mm 1 mps 758 mmHg 47%
    10:00 +20°C° 0 mm 1 mps 758 mmHg 41%
    11:00 +21°C° 0 mm 1 mps 758 mmHg 39%
    12:00 +21°C° 0 mm 2 mps 758 mmHg 37%
    13:00 +23°C° 0 mm 2 mps 757 mmHg 35%
    14:00 +23°C° 0 mm 2 mps 757 mmHg 38%
    15:00 +21°C° 0 mm 3 mps 757 mmHg 41%
    16:00 +21°C° 0 mm 3 mps 756 mmHg 43%
    17:00 +19°C° 0 mm 3 mps 756 mmHg 50%
    18:00 +18°C° 0 mm 2 mps 756 mmHg 56%
    19:00 +16°C° 0 mm 2 mps 756 mmHg 62%
    20:00 +16°C° 0 mm 1 mps 757 mmHg 65%
    21:00 +15°C° 0 mm 1 mps 757 mmHg 67%
    22:00 +14°C° 0 mm 1 mps 757 mmHg 70%
    23:00 +14°C° 0 mm 1 mps 757 mmHg 70%

    Day after tomorrow, 23 March, Saturday

    Time Temperature Precipitation Wind Pressure Humidity
    00:00 +14°C° 0 mm 1 mps 757 mmHg 70%
    01:00 +13°C° 0 mm 1 mps 756 mmHg 70%
    02:00 +13°C° 0 mm 1 mps 756 mmHg 70%
    03:00 +13°C° 0 mm 1 mps 756 mmHg 69%
    04:00 +12°C° 0 mm 1 mps 756 mmHg 68%
    05:00 +12°C° 0 mm 1 mps 756 mmHg 66%
    06:00 +12°C° 0 mm 1 mps 756 mmHg 65%
    07:00 +12°C° 0 mm 1 mps 756 mmHg 63%
    08:00 +15°C° 0 mm 1 mps 756 mmHg 58%
    09:00 +16°C° 0 mm 0 mps 756 mmHg 52%
    10:00 +18°C° 0 mm 0 mps 756 mmHg 46%
    11:00 +21°C° 0 mm 1 mps 756 mmHg 45%
    12:00 +22°C° 0 mm 1 mps 756 mmHg 43%
    13:00 +21°C° 0 mm 2 mps 756 mmHg 41%
    14:00 +21°C° 0 mm 2 mps 755 mmHg 45%
    15:00 +20°C° 0 mm 3 mps 755 mmHg 48%
    16:00 +20°C° 0 mm 3 mps 755 mmHg 52%
    17:00 +18°C° 0 mm 2 mps 755 mmHg 58%
    18:00 +17°C° 0 mm 2 mps 755 mmHg 65%
    19:00 +15°C° 0 mm 1 mps 755 mmHg 71%
    20:00 +15°C° 0 mm 1 mps 755 mmHg 73%
    21:00 +14°C° 0 mm 1 mps 756 mmHg 75%
    22:00 +14°C° 0 mm 1 mps 756 mmHg 77%
    23:00 +14°C° 0 mm 1 mps 756 mmHg 77%

    24 March, Sunday

    Time Temperature Precipitation Wind Pressure Humidity
    00:00 +13°C° 0 mm 1 mps 756 mmHg 76%
    01:00 +13°C° 0 mm 1 mps 756 mmHg 76%
    02:00 +13°C° 0 mm 1 mps 756 mmHg 75%
    03:00 +13°C° 0 mm 1 mps 756 mmHg 74%
    04:00 +12°C° 0 mm 1 mps 756 mmHg 74%
    05:00 +13°C° 0 mm 1 mps 756 mmHg 72%
    06:00 +13°C° 0 mm 1 mps 756 mmHg 70%
    07:00 +13°C° 0 mm 1 mps 756 mmHg 69%
    08:00 +15°C° 0 mm 1 mps 756 mmHg 62%
    09:00 +18°C° 0 mm 1 mps 756 mmHg 55%
    10:00 +20°C° 0 mm 1 mps 756 mmHg 48%
    11:00 +21°C° 0 mm 1 mps 756 mmHg 46%
    12:00 +20°C° 0 mm 2 mps 756 mmHg 43%
    13:00 +21°C° 0 mm 3 mps 756 mmHg 41%
    14:00 +21°C° 0 mm 3 mps 756 mmHg 42%
    15:00 +20°C° 0 mm 3 mps 755 mmHg 42%
    16:00 +20°C° 0 mm 3 mps 755 mmHg 43%
    17:00 +19°C° 0 mm 2 mps 755 mmHg 48%
    18:00 +17°C° 0 mm 2 mps 755 mmHg 53%
    19:00 +15°C° 0 mm 1 mps 755 mmHg 58%
    20:00 +15°C° 0 mm 1 mps 755 mmHg 60%
    21:00 +14°C° 0 mm 1 mps 755 mmHg 62%
    22:00 +14°C° 0 mm 1 mps 755 mmHg 65%
    23:00 +13°C° 0 mm 1 mps 755 mmHg 66%

    25 March, Monday

    Time Temperature Precipitation Wind Pressure Humidity
    00:00 +13°C° 0 mm 1 mps 755 mmHg 66%
    01:00 +13°C° 0 mm 1 mps 755 mmHg 67%
    02:00 +12°C° 0 mm 1 mps 755 mmHg 67%
    03:00 +12°C° 0 mm 1 mps 754 mmHg 67%
    04:00 +12°C° 0 mm 1 mps 754 mmHg 68%
    05:00 +12°C° 0 mm 1 mps 754 mmHg 66%
    06:00 +12°C° 0 mm 1 mps 754 mmHg 65%
    07:00 +12°C° 0 mm 1 mps 754 mmHg 64%
    08:00 +14°C° 0 mm 1 mps 754 mmHg 58%
    09:00 +16°C° 0 mm 1 mps 754 mmHg 51%
    10:00 +19°C° 0 mm 1 mps 754 mmHg 45%
    11:00 +20°C° 0 mm 1 mps 754 mmHg 43%
    12:00 +20°C° 0 mm 2 mps 754 mmHg 41%
    13:00 +20°C° 0 mm 3 mps 754 mmHg 39%
    14:00 +20°C° 0 mm 3 mps 753 mmHg 41%
    15:00 +20°C° 0 mm 3 mps 753 mmHg 42%
    16:00 +19°C° 0 mm 3 mps 752 mmHg 44%
    17:00 +18°C° 0 mm 3 mps 753 mmHg 49%
    18:00 +16°C° 0 mm 2 mps 753 mmHg 54%
    19:00 +15°C° 0 mm 2 mps 753 mmHg 59%
    20:00 +14°C° 0 mm 1 mps 753 mmHg 62%
    21:00 +14°C° 0 mm 1 mps 753 mmHg 64%
    22:00 +13°C° 0 mm 1 mps 753 mmHg 67%
    23:00 +13°C° 0 mm 1 mps 753 mmHg 68%

    26 March, Tuesday

    Time Temperature Precipitation Wind Pressure Humidity
    00:00 +13°C° 0 mm 1 mps 753 mmHg 69%
    01:00 +12°C° 0 mm 1 mps 753 mmHg 71%
    02:00 +12°C° 0 mm 1 mps 753 mmHg 71%
    03:00 +12°C° 0 mm 1 mps 753 mmHg 72%
    04:00 +12°C° 0 mm 1 mps 753 mmHg 72%
    05:00 +12°C° 0 mm 1 mps 753 mmHg 72%
    06:00 +12°C° 0 mm 1 mps 753 mmHg 71%
    07:00 +12°C° 0 mm 1 mps 753 mmHg 70%
    08:00 +14°C° 0 mm 1 mps 754 mmHg 63%
    09:00 +18°C° 0 mm 1 mps 754 mmHg 56%
    10:00 +18°C° 0 mm 0 mps 754 mmHg 49%
    11:00 +20°C° 0.1 mm 1 mps 754 mmHg 48%
    12:00 +20°C° 0.1 mm 2 mps 754 mmHg 47%
    13:00 +20°C° 0.1 mm 2 mps 754 mmHg 47%
    14:00 +19°C° 0.1 mm 2 mps 753 mmHg 50%
    15:00 +19°C° 0.1 mm 2 mps 753 mmHg 54%
    16:00 +18°C° 0.1 mm 3 mps 753 mmHg 58%
    17:00 +17°C° 0.1 mm 2 mps 753 mmHg 62%
    18:00 +16°C° 0.1 mm 2 mps 754 mmHg 66%
    19:00 +15°C° 0.1 mm 1 mps 754 mmHg 70%
    20:00 +14°C° 0 mm 1 mps 754 mmHg 71%
    21:00 +14°C° 0 mm 1 mps 755 mmHg 72%
    22:00 +13°C° 0 mm 1 mps 755 mmHg 72%
    23:00 +13°C° 0 mm 1 mps 756 mmHg 73%
    Show more